Regional Weather Roundup
Issued by NWS

Home | Current Version | Previous Version | Text Only | Print | Product List | Glossary On
Versions: 1 2 3 4 5 6 7 8 9 10 11 12 13 14 15 16 17 18 19 20 21 22 23 24 25 26 27 28
000
ASUS46 KSEW 162210
RWRWA

WASHINGTON REGIONAL WEATHER ROUNDUP
NATIONAL WEATHER SERVICE SEATTLE WA
300 PM PDT WED APR 16 2014

NOTE:"FAIR" INDICATES FEW OR NO CLOUDS BELOW 12,000 FEET WITH NO
SIGNIFICANT WEATHER AND/OR OBSTRUCTIONS TO VISIBILITY.

WAZ505-507>509-162300-
SEATTLE, TACOMA, EVERETT, AND VICINITY

CITY           SKY/WX    TMP DP  RH WIND       PRES   REMARKS
EVERETT        LGT RAIN  52  46  80 S14G24    30.03S
BOEING FIELD   LGT RAIN  54  48  80 S8        30.05S
RENTON         LGT RAIN  53  50  89 SE7G17    30.05S
SEATAC AIRPORT LGT RAIN  52  49  89 S14       30.05F
JBLM-MCCHORD   LGT RAIN  53  49  89 S7        30.06S
PUYALLUP       LGT RAIN  52  50  93 S5        30.06F
JBLM-FT LEWIS  DRIZZLE   53  49  84 S10       30.05S
TACOMA NARROWS LGT RAIN  52  46  80 S10       30.05F
$$

WAZ001-503-506-510-514-515-162300-
NORTH INTERIOR

CITY           SKY/WX    TMP DP  RH WIND       PRES   REMARKS
BELLINGHAM     LGT RAIN  54  46  76 SE9       30.00F
FRIDAY HARBOR  LGT RAIN  52  47  83 SE8       30.01S
EASTSOUND      CLOUDY    52  46  82 S10       29.99S
PORT ANGELES   CLOUDY    51  47  86 N3        30.00R
NAS WHIDBEY    LGT RAIN  57  47  69 SE17G25   30.01S
BURLINGTON     CLOUDY    54  48  82 SE13      30.03F
$$

WAZ020-022-039-040-504-511-512-162300-
SOUTHWEST INTERIOR

CITY           SKY/WX    TMP DP  RH WIND       PRES   REMARKS
SHELTON        LGT RAIN  52  49  89 S8        30.02S FOG
OLYMPIA        CLOUDY    52  48  86 S12       30.05F
CHEHALIS       CLOUDY    54  50  87 S12       30.08S
KELSO          CLOUDY    54  45  71 S8        30.11F
VANCOUVER      CLOUDY    57  44  62 SW5       30.09F
SCAPPOOSE, OR  CLOUDY    57  47  69 MISG      30.08F
PORTLAND, OR   CLOUDY    58  43  57 SW10      30.09F
$$

WAZ021-516-517-162300-
WASHINGTON COAST

CITY           SKY/WX    TMP DP  RH WIND       PRES   REMARKS
FORKS          CLOUDY    51  51 100 SW7       30.00S FOG
HOQUIAM        LGT RAIN  52  50  93 S20       30.04S FOG
ASTORIA, OR    LGT RAIN  52  48  86 S15G21    30.06S FOG
$$

WAZ019-023-024-040-518-519-162300-
CASCADE MOUNTAINS AND COLUMBIA GORGE

CITY           SKY/WX    TMP DP  RH WIND       PRES   REMARKS
STAMPEDE PASS  NOT AVBL
TROUTDALE, OR  PTSUNNY   59  44  57 VRB5      30.08F
THE DALLES, OR CLOUDY    61  42  49 NW14      30.05F
$$

WAZ026-027-041>044-520-521-162300-
EAST SLOPES

CITY           SKY/WX    TMP DP  RH WIND       PRES   REMARKS
OMAK           CLOUDY    61  31  32 S10       29.94F
WENATCHEE      CLOUDY    62  32  32 NW15      29.95F
ELLENSBURG     CLOUDY    59  38  45 NW12      29.99S
YAKIMA         CLOUDY    62  37  39 S15       29.98F
$$

WAZ028-034-035-162300-
COLUMBIA BASIN

CITY           SKY/WX    TMP DP  RH WIND       PRES   REMARKS
EPHRATA        CLOUDY    61  34  36 SW18G25   29.96F
MOSES LAKE     CLOUDY    61  34  36 SW12      29.98F
HANFORD        NOT AVBL
PASCO          CLOUDY    65  36  34 S13       30.00F
HERMISTON, OR  CLOUDY    67  36  31 SW13      30.00F
$$

WAZ036>038-162300-
NORTHEAST WASHINGTON

CITY           SKY/WX    TMP DP  RH WIND       PRES   REMARKS
SPOKANE GEIGER CLOUDY    50  39  66 SW12G20   30.00F
SPOKANE FELTS  CLOUDY    52  40  63 SW10      30.01F
FAIRCHILD AFB  LGT RAIN  48  39  71 SW8       30.00S
COEURDALENE,ID CLOUDY    46  39  76 S5        30.02F
DEER PARK      LGT RAIN  46  41  82 SE5       30.01F
$$

WAZ029>033-162300-
SOUTHEAST WASHINGTON

CITY           SKY/WX    TMP DP  RH WIND       PRES   REMARKS
PULLMAN        CLOUDY    49  39  68 VRB7      30.04F
LEWISTON, ID   CLOUDY    58  31  35 VRB6      30.02F
WALLA WALLA    PTSUNNY   62  37  39 SW12      30.02F
PENDLETON, OR  PTSUNNY   60  32  34 SW9       30.00F
$$



USA.gov is the U.S. government's official web portal to all federal, state and local government web resources and services.